Bridgeport, WV

10:06 PM EST on February 20, 2017 (GMT -0500)
Benedum

Weather History for KCKB - April, 2013

Change the Weather History Date:

Wednesday, April 24, 2013

  Actual Average Record
Temperature  
Mean Temperature 58 °F -  
Max Temperature 75 °F 68 °F 89 °F (1985)
Min Temperature 42 °F 42 °F 26 °F (1982)
Degree Days  
Heating Degree Days 7    
Growing Degree Days 8 (Base 50)    
Moisture  
Dew Point 45 °F    
Average Humidity 63    
Maximum Humidity 87    
Minimum Humidity 43    
Precipitation  
Precipitation 0.11 in - - ()
Sea Level Pressure  
Sea Level Pressure 29.93 in    
Wind  
Wind Speed 11 mph (WSW)    
Max Wind Speed 26 mph    
Max Gust Speed 38 mph    
Visibility 10 miles    
Events Rain , Thunderstorm    
Averages and records for this station are not official NWS values.
T = Trace of Precipitation, MM = Missing Value Source: NWS Daily Summary

Daily Weather History Graph

Daily Weather History Graph

Search for Another Location

Airport or City:

Trip Planner

Search our weather history database for the weather conditions in past years. The results will help you decide how hot, cold, wet, or windy it might be!

Date:

Astronomy

Apr. 24, 2013 Rise Set
Actual Time 6:30 AM EDT 8:07 PM EDT
Civil Twilight 6:02 AM EDT 8:36 PM EDT
Nautical Twilight 5:28 AM EDT 9:10 PM EDT
Astronomical Twilight 4:52 AM EDT 9:47 PM EDT
Moon 7:09 PM EDT (4/24) 5:33 AM EDT (4/24)
Length of Visible Light 14h 33m
Length of Day
13h 36m
Waxing Gibbous, 98% of the Moon is Illuminated
Apr 24
Waxing Gibbous
Apr 25
Full
May 2
Last Quarter
May 9
New
May 18
First Quarter

Hourly Weather History & Observations

Time (EDT) Temp. Windchill Dew Point Humidity Pressure Visibility Wind Dir Wind Speed Gust Speed Precip Events Conditions
12:53 AM 57.9 °F - 37.0 °F 46% 29.95 in 10.0 mi SSE 4.6 mph - N/A   Clear
1:53 AM 57.9 °F - 36.0 °F 44% 29.93 in 10.0 mi South 4.6 mph - N/A   Clear
2:53 AM 57.0 °F - 37.0 °F 47% 29.92 in 10.0 mi South 3.5 mph - N/A   Clear
3:53 AM 55.9 °F - 37.9 °F 51% 29.93 in 10.0 mi South 4.6 mph - N/A   Clear
4:53 AM 55.0 °F - 41.0 °F 59% 29.93 in 10.0 mi South 6.9 mph - N/A   Clear
6:53 AM 57.9 °F - 42.1 °F 56% 29.91 in 10.0 mi SSW 6.9 mph - N/A   Mostly Cloudy
7:53 AM 61.0 °F - 43.0 °F 52% 29.91 in 10.0 mi SSW 9.2 mph - N/A   Overcast
8:53 AM 64.9 °F - 45.0 °F 48% 29.88 in 10.0 mi South 11.5 mph - N/A   Overcast
9:53 AM 68.0 °F - 46.0 °F 45% 29.87 in 10.0 mi SSW 15.0 mph 19.6 mph N/A   Overcast
10:53 AM 70.0 °F - 48.0 °F 46% 29.84 in 10.0 mi SW 15.0 mph 23.0 mph N/A   Mostly Cloudy
11:53 AM 73.9 °F - 51.1 °F 45% 29.80 in 10.0 mi South 12.7 mph - N/A   Partly Cloudy
12:53 PM 73.0 °F - 50.0 °F 44% 29.79 in 10.0 mi SSW 15.0 mph 21.9 mph N/A   Mostly Cloudy
1:53 PM 73.9 °F - 50.0 °F 43% 29.76 in 10.0 mi SW 9.2 mph - N/A   Clear
2:06 PM 73.4 °F - 50.0 °F 44% 29.80 in 10.0 mi SSW 15.0 mph 24.2 mph N/A Thunderstorm Thunderstorm
2:21 PM 73.4 °F - 50.0 °F 44% 29.79 in 10.0 mi SSW 16.1 mph 26.5 mph 0.00 in Rain Light Rain
2:34 PM 71.6 °F - 50.0 °F 46% 29.80 in 9.0 mi SW 20.7 mph 31.1 mph 0.00 in Rain , Thunderstorm Light Thunderstorms and Rain
2:45 PM 68.0 °F - 51.8 °F 56% 29.84 in 4.0 mi West 18.4 mph 29.9 mph 0.03 in Rain Light Rain
2:53 PM 64.0 °F - 55.0 °F 73% 29.82 in 4.0 mi West 15.0 mph 31.1 mph 0.05 in Rain Rain
3:00 PM 64.4 °F - 55.4 °F 73% 29.84 in 8.0 mi West 9.2 mph 26.5 mph 0.00 in Rain Light Rain
3:53 PM 64.0 °F - 55.0 °F 73% 29.82 in 9.0 mi West 19.6 mph 35.7 mph 0.01 in Rain Light Rain
4:53 PM 60.1 °F - 52.0 °F 75% 29.85 in 10.0 mi WSW 26.5 mph 36.8 mph 0.02 in Rain Light Rain
5:53 PM 61.0 °F - 53.1 °F 75% 29.84 in 10.0 mi SW 23.0 mph 29.9 mph 0.02 in   Overcast
6:01 PM 60.8 °F - 53.6 °F 77% 29.87 in 10.0 mi SW 20.7 mph 31.1 mph N/A   Overcast
6:38 PM 55.4 °F - 50.0 °F 82% 29.92 in 8.0 mi West 19.6 mph 38.0 mph 0.01 in Rain Light Rain
6:45 PM 53.6 °F - 48.2 °F 82% 29.93 in 10.0 mi WNW 17.3 mph 29.9 mph 0.01 in   Overcast
6:53 PM 54.0 °F - 48.0 °F 80% 29.92 in 10.0 mi West 20.7 mph 32.2 mph 0.01 in   Overcast
7:53 PM 50.0 °F - 44.1 °F 80% 30.00 in 10.0 mi WNW 15.0 mph 27.6 mph 0.00 in   Overcast
8:02 PM 48.2 °F - 44.6 °F 87% 30.02 in 10.0 mi WNW 19.6 mph 29.9 mph 0.00 in Rain Light Rain
8:10 PM 48.2 °F - 42.8 °F 82% 30.03 in 10.0 mi WNW 18.4 mph 27.6 mph 0.00 in   Overcast
8:51 PM 46.4 °F 40.4 °F 37.4 °F 71% 30.09 in 10.0 mi West 13.8 mph 20.7 mph 0.00 in   Overcast
8:53 PM 46.9 °F - 37.9 °F 71% 30.08 in 10.0 mi West 15.0 mph 27.6 mph 0.00 in   Overcast
9:25 PM 46.4 °F 41.9 °F 37.4 °F 71% 30.14 in 10.0 mi WNW 9.2 mph 25.3 mph N/A   Overcast
9:53 PM 44.1 °F 37.1 °F 37.0 °F 76% 30.15 in 10.0 mi WNW 15.0 mph 21.9 mph N/A   Overcast
10:53 PM 43.0 °F 40.3 °F 35.1 °F 74% 30.17 in 10.0 mi West 4.6 mph - N/A   Overcast
11:01 PM 44.6 °F 40.7 °F 33.8 °F 66% 30.19 in 10.0 mi West 6.9 mph - N/A   Overcast
11:53 PM 42.1 °F 38.4 °F 33.1 °F 70% 30.17 in 10.0 mi WNW 5.8 mph - N/A   Scattered Clouds